Location: Krakow
(50.0830°N, 19.9170°E)
Time: 14:04:50
(UTC+02:00)

Tiros 1 - Pass Details

Date: 02 February 2023
Orbit: 627 x 662 km, 48.4° (Epoch: 01 April)

Event Time Altitude Azimuth Distance (km) Brightness Sun altitude
Exits shadow 04:42:31 59° 184° (S) 744 7.3 -24.3°
Drops below altitude 10° 04:46:58 10° 116° (ESE) 2,045 10.6 -23.6°
Sets 04:49:20 0° 113° (ESE) 2,960 11.7 -23.2°
